Location: Kavul?ru
(16.6288°N, 80.5832°E)
Time: 05:18:53
(UTC+00:00)

Cosmos 2278 Rocket - Pass Details

Date: 15 May 2026
Orbit: 840 x 845 km, 71.0° (Epoch: 6 June)

Event Time Altitude Azimuth Distance (km) Brightness Sun altitude
Exits shadow 22:38:37 23° 193° (SSW) 1,699 3.4 -20.1°
Maximum altitude 22:42:13 85° 107° (ESE) 849 2.2 -19.3°
Drops below altitude 10° 22:47:53 10° 18° (NNE) 2,459 5.2 -18.1°
Sets 22:50:19 0° 18° (NNE) 3,395 6.0 -17.6°
